GW1430 Weather Reports


Display with metric or nautical units.
time (UTC)temp
F
wind
direction
speed
MPH
gust
MPH
rain 1hr
in
rain 24hr
in
rain mn
in
humidity
%
barometer
mb
20260506204556 72 5 5.0 0.0 0.00 0.00 0.00 70 1011.6
20260506204058 72 14 5.0 0.0 0.00 0.00 0.00 71 1011.5
20260506203555 72 346 6.0 0.0 0.00 0.00 0.00 70 1011.5
20260506203055 71 333 7.0 0.0 0.00 0.00 0.00 72 1011.4
20260506202555 72 314 6.0 0.0 0.00 0.00 0.00 73 1011.4
20260506202055 72 306 6.0 0.0 0.00 0.00 0.00 72 1011.4
20260506201555 72 355 6.0 0.0 0.00 0.00 0.00 73 1011.2
20260506201054 72 323 6.0 0.0 0.00 0.00 0.00 74 1011.2
20260506200554 72 329 7.0 0.0 0.00 0.00 0.00 74 1011.1
20260506200055 72 32 7.0 0.0 0.00 0.00 0.00 75 1011.0
20260506195554 72 5 7.0 0.0 0.00 0.00 0.00 73 1011.0
20260506195054 73 319 6.0 0.0 0.00 0.00 0.00 72 1010.9
20260506194555 75 5 5.0 0.0 0.00 0.00 0.00 73 1010.8
20260506194054 75 325 4.0 0.0 0.00 0.00 0.00 72 1010.7
20260506193553 76 310 5.0 0.0 0.00 0.00 0.00 73 1010.8
20260506193053 76 325 5.0 0.0 0.00 0.00 0.00 72 1010.6
20260506192553 76 19 5.0 0.0 0.00 0.00 0.00 72 1010.5
20260506192053 77 17 5.0 0.0 0.00 0.00 0.00 72 1010.6
20260506191554 77 259 4.0 0.0 0.00 0.00 0.00 72 1010.7
20260506191053 78 355 4.0 0.0 0.00 0.00 0.00 70 1010.9
20260506190553 78 302 4.0 0.0 0.00 0.00 0.00 69 1011.0
20260506190055 79 321 5.0 0.0 0.00 0.00 0.00 70 1010.9
20260506185552 78 313 4.0 0.0 0.00 0.00 0.00 69 1010.9
20260506185051 79 323 3.0 0.0 0.00 0.00 0.00 71 1010.8
20260506184552 78 325 4.0 0.0 0.00 0.00 0.00 71 1010.8
20260506184051 77 38 5.0 0.0 0.00 0.00 0.00 72 1010.8
20260506183551 77 5 4.0 0.0 0.00 0.00 0.00 72 1010.8
20260506183051 76 20 3.0 0.0 0.00 0.00 0.00 72 1010.9
20260506182549 76 142 3.0 0.0 0.00 0.00 0.00 75 1010.9
20260506182049 75 30 3.0 0.0 0.00 0.00 0.00 75 1011.0
20260506181549 75 41 3.0 0.0 0.00 0.00 0.00 75 1011.0
20260506181049 75 42 3.0 0.0 0.00 0.00 0.00 76 1010.9
20260506180549 75 28 3.0 0.0 0.00 0.00 0.00 76 1010.9
20260506180048 74 29 2.0 0.0 0.00 0.00 0.00 78 1010.8
20260506175547 74 133 3.0 0.0 0.00 0.00 0.00 78 1010.8
20260506175047 73 50 3.0 0.0 0.00 0.00 0.00 78 1010.8
20260506174548 73 42 3.0 0.0 0.00 0.00 0.00 78 1010.8
20260506174048 72 309 3.0 0.0 0.00 0.00 0.00 80 1010.9
20260506173549 71 26 3.0 0.0 0.00 0.00 0.00 81 1011.0
20260506173058 70 22 4.0 0.0 0.00 0.00 0.00 80 1011.0
20260506172549 70 42 5.0 0.0 0.00 0.00 0.00 83 1011.0
20260506172046 70 24 5.0 0.0 0.00 0.00 0.00 83 1011.1
20260506171552 69 9 4.0 0.0 0.00 0.00 0.00 83 1011.1
20260506171046 69 80 5.0 0.0 0.00 0.00 0.00 85 1011.1
20260506170546 68 60 5.0 0.0 0.00 0.00 0.00 87 1010.9
20260506170047 67 30 4.0 0.0 0.00 0.00 0.00 88 1011.0
20260506165547 67 44 5.0 0.0 0.00 0.00 0.00 88 1011.3
20260506165045 67 20 5.0 0.0 0.00 0.00 0.00 88 1011.3
20260506164558 66 290 4.0 0.0 0.00 0.00 0.00 88 1011.4
20260506164045 65 32 5.0 0.0 0.00 0.00 0.00 87 1011.4
20260506163545 65 311 6.0 0.0 0.00 0.00 0.00 86 1011.5
20260506163046 65 30 8.0 0.0 0.00 0.00 0.00 86 1011.9
20260506162543 65 14 9.0 0.0 0.00 0.00 0.00 85 1012.1
20260506162042 66 335 10.0 0.0 0.00 0.00 0.00 85 1012.4
20260506161541 66 351 9.0 0.0 0.00 0.00 0.00 85 1012.3
20260506161039 67 34 8.0 0.0 0.00 0.00 0.00 85 1012.2
20260506160539 67 342 7.0 0.0 0.00 0.00 0.00 85 1012.1
20260506160043 68 351 6.0 0.0 0.00 0.00 0.00 84 1012.2
20260506155535 68 19 8.0 0.0 0.00 0.00 0.00 84 1012.3
20260506155034 69 355 8.0 0.0 0.00 0.00 0.00 83 1011.9
20260506154533 71 329 7.0 0.0 0.00 0.00 0.00 81 1011.7
20260506154031 73 13 6.0 0.0 0.00 0.00 0.00 81 1011.4
20260506153528 76 355 3.0 0.0 0.00 0.00 0.00 80 1011.4
20260506153030 78 100 1.0 0.0 0.00 0.00 0.00 85 1011.0
20260506152527 78 100 1.0 0.0 0.00 0.00 0.00 85 1010.8
20260506152027 78 117 1.0 0.0 0.00 0.00 0.00 85 1010.3
20260506151527 78 49 1.0 0.0 0.00 0.00 0.00 85 1010.5
20260506151026 78 49 2.0 0.0 0.00 0.00 0.00 85 1010.5
20260506150526 78 49 2.0 0.0 0.00 0.00 0.00 85 1010.4
20260506150025 78 44 2.0 0.0 0.00 0.00 0.00 85 1010.3
20260506145524 78 132 2.0 0.0 0.00 0.00 0.00 85 1010.1
20260506145023 78 145 1.0 0.0 0.00 0.00 0.00 85 1009.9
20260506144529 78 140 1.0 0.0 0.00 0.00 0.00 85 1009.9
20260506144025 78 84 2.0 0.0 0.00 0.00 0.00 85 1009.7
20260506143523 78 122 2.0 0.0 0.00 0.00 0.00 85 1009.6
20260506143031 78 91 2.0 0.0 0.00 0.00 0.00 86 1009.6
20260506142524 78 214 2.0 0.0 0.00 0.00 0.00 86 1009.4
20260506142020 78 204 2.0 0.0 0.00 0.00 0.00 87 1009.2
20260506141520 78 101 1.0 0.0 0.00 0.00 0.00 87 1009.2
20260506141019 78 84 1.0 0.0 0.00 0.00 0.00 87 1009.5
20260506140519 77 130 0.0 0.0 0.00 0.00 0.00 88 1009.9
20260506140016 77 130 1.0 0.0 0.00 0.00 0.00 88 1009.8
20260506135515 77 130 1.0 0.0 0.00 0.00 0.00 88 1009.4
20260506135014 77 130 0.0 0.0 0.00 0.00 0.00 88 1009.1
20260506134514 76 130 1.0 0.0 0.00 0.00 0.00 88 1008.9
20260506134014 76 130 1.0 0.0 0.00 0.00 0.00 88 1009.0
20260506133513 76 26 1.0 0.0 0.00 0.00 0.00 88 1008.9
20260506133014 76 123 1.0 0.0 0.00 0.00 0.00 88 1008.9
20260506132512 76 141 2.0 0.0 0.00 0.00 0.00 88 1008.9
20260506132015 76 131 2.0 0.0 0.00 0.00 0.00 88 1008.9
20260506131517 76 98 1.0 0.0 0.00 0.00 0.00 89 1008.9
20260506131011 76 177 1.0 0.0 0.00 0.00 0.00 89 1008.8
20260506130514 76 214 2.0 0.0 0.00 0.00 0.00 89 1008.8
20260506130015 76 215 2.0 0.0 0.00 0.00 0.00 89 1008.7
20260506125509 76 84 1.0 0.0 0.00 0.00 0.00 89 1008.7
20260506125011 76 116 1.0 0.0 0.00 0.00 0.00 89 1008.6
20260506124509 76 116 1.0 0.0 0.00 0.00 0.00 89 1008.6
20260506124011 75 98 1.0 0.0 0.00 0.00 0.00 89 1008.7
20260506123509 75 96 1.0 0.0 0.00 0.00 0.00 89 1008.7
20260506123009 75 114 1.0 0.0 0.00 0.00 0.00 88 1008.7
20260506122509 75 92 1.0 0.0 0.00 0.00 0.00 88 1008.7
20260506122008 75 92 0.0 0.0 0.00 0.00 0.00 88 1008.7
20260506121508 75 129 0.0 0.0 0.00 0.00 0.00 88 1008.7
20260506121008 75 129 1.0 0.0 0.00 0.00 0.00 88 1008.7
20260506120507 75 129 1.0 0.0 0.00 0.00 0.00 88 1008.6
20260506120007 75 193 1.0 0.0 0.00 0.00 0.00 88 1008.5
20260506115506 75 193 0.0 0.0 0.00 0.00 0.00 88 1008.4
20260506115005 75 193 1.0 0.0 0.00 0.00 0.00 88 1008.5
20260506114508 75 193 1.0 0.0 0.00 0.00 0.00 88 1008.5
20260506114005 76 193 1.0 0.0 0.00 0.00 0.00 88 1008.5
20260506113505 76 193 1.0 0.0 0.00 0.00 0.00 88 1008.5
20260506113008 76 193 1.0 0.0 0.00 0.00 0.00 88 1008.5
20260506112506 76 193 1.0 0.0 0.00 0.00 0.00 88 1008.5
20260506112006 76 144 1.0 0.0 0.00 0.00 0.00 88 1008.5
20260506111505 76 144 1.0 0.0 0.00 0.00 0.00 88 1008.5
20260506111004 76 172 1.0 0.0 0.00 0.00 0.00 88 1008.5
20260506110504 76 101 1.0 0.0 0.00 0.00 0.00 88 1008.4
20260506110004 76 192 1.0 0.0 0.00 0.00 0.00 88 1008.5
20260506105503 76 220 1.0 0.0 0.00 0.00 0.00 88 1008.5
20260506105002 76 111 1.0 0.0 0.00 0.00 0.00 88 1008.4
20260506104502 76 234 1.0 0.0 0.00 0.00 0.00 88 1008.4
20260506104003 76 128 1.0 0.0 0.00 0.00 0.00 88 1008.3
20260506103502 76 95 0.0 0.0 0.00 0.00 0.00 88 1008.2
20260506103101 76 156 0.0 0.0 0.00 0.00 0.00 88 1008.2
20260506102600 76 156 1.0 0.0 0.00 0.00 0.00 88 1008.2
20260506102059 76 176 2.0 0.0 0.00 0.00 0.00 88 1008.1
20260506101559 76 175 1.0 0.0 0.00 0.00 0.00 88 1008.0
20260506101059 76 182 2.0 0.0 0.00 0.00 0.00 88 1008.0
20260506100558 76 198 2.0 0.0 0.00 0.00 0.00 88 1008.0
20260506100058 76 132 1.0 0.0 0.00 0.00 0.00 88 1007.9
20260506095558 76 207 2.0 0.0 0.00 0.00 0.00 88 1007.8
20260506095058 76 171 3.0 0.0 0.00 0.00 0.00 88 1007.7
20260506094558 76 190 2.0 0.0 0.00 0.00 0.00 88 1007.7
20260506094058 76 186 3.0 0.0 0.00 0.00 0.00 88 1007.6
20260506093557 76 205 2.0 0.0 0.00 0.00 0.00 88 1007.5
20260506093057 76 184 2.0 0.0 0.00 0.00 0.00 88 1007.4
20260506092557 76 118 3.0 0.0 0.00 0.00 0.00 88 1007.3
20260506092057 76 223 2.0 0.0 0.00 0.00 0.00 88 1007.3
20260506091557 76 187 2.0 0.0 0.00 0.00 0.00 88 1007.3
20260506091056 76 186 2.0 0.0 0.00 0.00 0.00 88 1007.2
20260506090556 76 147 2.0 0.0 0.00 0.00 0.00 88 1007.1
20260506090056 76 219 2.0 0.0 0.00 0.00 0.00 88 1007.1
20260506085554 76 196 2.0 0.0 0.00 0.00 0.00 88 1007.1
20260506085054 76 139 3.0 0.0 0.00 0.00 0.00 88 1007.2
20260506084554 76 208 2.0 0.0 0.00 0.00 0.00 88 1007.2
20260506084053 76 236 2.0 0.0 0.00 0.00 0.00 88 1007.2
20260506083553 76 208 2.0 0.0 0.00 0.00 0.00 88 1007.3
20260506083053 76 200 2.0 0.0 0.00 0.00 0.00 88 1007.2
20260506082552 76 178 3.0 0.0 0.00 0.00 0.00 88 1007.3
20260506082052 76 213 3.0 0.0 0.00 0.00 0.00 88 1007.2
20260506081553 76 190 2.0 0.0 0.00 0.00 0.00 87 1007.2
20260506081052 76 185 3.0 0.0 0.00 0.00 0.00 87 1007.2
20260506080552 76 151 2.0 0.0 0.00 0.00 0.00 87 1007.2
20260506073054 76 211 3.0 0.0 0.00 0.00 0.00 87 1007.5
20260506072548 76 175 3.0 0.0 0.00 0.00 0.00 87 1007.6
20260506072047 76 203 3.0 0.0 0.00 0.00 0.00 87 1007.8
20260506071551 76 224 3.0 0.0 0.00 0.00 0.00 87 1007.8
20260506071046 76 143 4.0 0.0 0.00 0.00 0.00 87 1007.7
20260506070546 76 169 3.0 0.0 0.00 0.00 0.00 87 1007.8
20260506070106 76 221 3.0 0.0 0.00 0.00 0.00 87 1007.8
20260506062046 76 186 3.0 0.0 0.00 0.00 0.00 87 1007.9
20260506061645 76 168 3.0 0.0 0.00 0.00 0.00 87 1007.9
20260506061046 76 151 3.0 0.0 0.00 0.00 0.00 87 1007.8
20260506060542 76 180 3.0 0.0 0.00 0.00 0.00 87 1007.9
20260506051037 77 211 3.0 0.0 0.00 0.00 0.00 86 1008.0
20260506050536 77 130 2.0 0.0 0.00 0.00 0.00 86 1007.9
20260506045033 77 149 3.0 0.0 0.00 0.00 0.00 86 1007.9
20260506044546 77 196 3.0 0.0 0.00 0.00 0.00 86 1007.9
20260506044032 77 190 2.0 0.0 0.00 0.00 0.00 86 1008.0
20260506043533 77 184 2.0 0.0 0.00 0.00 0.00 86 1008.0
20260506043033 77 100 3.0 0.0 0.00 0.00 0.00 86 1007.9
20260506042532 77 128 2.0 0.0 0.00 0.00 0.00 86 1007.9
20260506042032 77 114 2.0 0.0 0.00 0.00 0.00 85 1007.7
20260506041535 77 141 3.0 0.0 0.00 0.00 0.00 85 1007.7
20260506041032 77 101 3.0 0.0 0.00 0.00 0.00 85 1007.7
20260506040532 77 179 3.0 0.0 0.00 0.00 0.00 85 1007.6
20260506040034 77 119 3.0 0.0 0.00 0.00 0.00 85 1007.5
20260506035532 77 156 3.0 0.0 0.00 0.00 0.00 85 1007.5
20260506035031 78 174 2.0 0.0 0.00 0.00 0.00 84 1007.3
20260506034531 78 73 2.0 0.0 0.00 0.00 0.00 84 1007.3
20260506034030 78 91 2.0 0.0 0.00 0.00 0.00 84 1007.3
20260506033530 78 208 2.0 0.0 0.00 0.00 0.00 84 1007.3
20260506033030 78 163 2.0 0.0 0.00 0.00 0.00 84 1007.3
20260506032530 78 217 2.0 0.0 0.00 0.00 0.00 84 1007.2
20260506032031 78 246 2.0 0.0 0.00 0.00 0.00 84 1007.2
20260506031534 78 250 3.0 0.0 0.00 0.00 0.00 84 1007.0
20260506031029 78 173 2.0 0.0 0.00 0.00 0.00 83 1007.0
20260506030529 78 234 2.0 0.0 0.00 0.00 0.00 83 1007.0
20260506030030 79 133 3.0 0.0 0.00 0.00 0.00 83 1006.9
20260506025532 79 144 3.0 0.0 0.00 0.00 0.00 82 1006.8
20260506025029 79 195 3.0 0.0 0.00 0.00 0.00 82 1006.7
20260506024534 79 161 3.0 0.0 0.00 0.00 0.00 82 1006.7
20260506024029 79 136 2.0 0.0 0.00 0.00 0.00 81 1006.6
20260506023529 79 173 3.0 0.0 0.00 0.00 0.00 81 1006.4
20260506023028 79 185 3.0 0.0 0.00 0.00 0.00 80 1006.3
20260506022528 80 113 3.0 0.0 0.00 0.00 0.00 80 1006.2
20260506022028 80 96 2.0 0.0 0.00 0.00 0.00 79 1006.1
20260506021528 80 169 2.0 0.0 0.00 0.00 0.00 79 1005.9
20260506021028 80 155 2.0 0.0 0.00 0.00 0.00 79 1005.9
20260506020530 80 168 2.0 0.0 0.00 0.00 0.00 78 1005.8
20260506020028 80 215 1.0 0.0 0.00 0.00 0.00 78 1005.8
20260506015527 80 178 2.0 0.0 0.00 0.00 0.00 78 1005.7
20260506015027 81 129 2.0 0.0 0.00 0.00 0.00 78 1005.7
20260506014528 81 101 2.0 0.0 0.00 0.00 0.00 77 1005.6
20260506014026 81 161 2.0 0.0 0.00 0.00 0.00 77 1005.7
20260506013526 81 234 2.0 0.0 0.00 0.00 0.00 77 1005.7
20260506013027 81 110 1.0 0.0 0.00 0.00 0.00 77 1005.6
20260506012528 81 88 1.0 0.0 0.00 0.00 0.00 76 1005.6
20260506012027 81 151 1.0 0.0 0.00 0.00 0.00 76 1005.6
20260506011528 81 134 1.0 0.0 0.00 0.00 0.00 76 1005.6
20260506011027 82 159 1.0 0.0 0.00 0.00 0.00 75 1005.7
20260506010526 82 154 1.0 0.0 0.00 0.00 0.00 75 1005.7
20260506010026 82 112 1.0 0.0 0.00 0.00 0.00 75 1005.7
20260506005526 82 218 1.0 0.0 0.00 0.00 0.00 74 1005.6
20260506005027 83 150 1.0 0.0 0.00 0.00 0.00 74 1005.6
20260506004529 83 217 1.0 0.0 0.00 0.00 0.00 74 1005.7
20260506004024 83 106 1.0 0.0 0.00 0.00 0.00 74 1005.6
20260506003525 83 227 2.0 0.0 0.00 0.00 0.00 74 1005.5
20260506003025 83 80 2.0 0.0 0.00 0.00 0.00 73 1005.5
20260506002524 83 132 1.0 0.0 0.00 0.00 0.00 73 1005.5
20260506002024 84 175 2.0 0.0 0.00 0.00 0.00 73 1005.5
20260506001524 84 178 2.0 0.0 0.00 0.00 0.00 72 1005.5
20260506001024 84 174 2.0 0.0 0.00 0.00 0.00 72 1005.4
20260506000524 84 206 2.0 0.0 0.00 0.00 0.00 72 1005.4
20260506000023 84 221 2.0 0.0 0.00 0.00 0.00 72 1005.3
20260505235522 84 193 2.0 0.0 0.00 0.00 0.00 72 1005.3
20260505235023 84 105 2.0 0.0 0.00 0.00 0.00 72 1005.2
20260505234548 84 131 2.0 0.0 0.00 0.00 0.00 72 1005.2
20260505234020 84 103 2.0 0.0 0.00 0.00 0.00 71 1005.1
20260505233520 84 9 2.0 0.0 0.00 0.00 0.00 71 1005.1
20260505233021 84 132 2.0 0.0 0.00 0.00 0.00 70 1005.1
20260505232520 84 134 2.0 0.0 0.00 0.00 0.00 70 1005.1
20260505232020 84 94 2.0 0.0 0.00 0.00 0.00 70 1005.1
20260505231520 84 257 2.0 0.0 0.00 0.00 0.00 71 1005.2
20260505231019 84 138 3.0 0.0 0.00 0.00 0.00 71 1005.2
20260505230519 85 142 3.0 0.0 0.00 0.00 0.00 71 1005.1
20260505230019 85 154 4.0 0.0 0.00 0.00 0.00 70 1005.0
20260505225519 85 197 3.0 0.0 0.00 0.00 0.00 69 1004.9
20260505225019 85 134 3.0 0.0 0.00 0.00 0.00 70 1005.0
20260505224527 85 149 3.0 0.0 0.00 0.00 0.00 69 1004.9
20260505224019 86 190 3.0 0.0 0.00 0.00 0.00 69 1004.9
20260505223518 86 165 3.0 0.0 0.00 0.00 0.00 69 1004.9
20260505223019 86 184 3.0 0.0 0.00 0.00 0.00 69 1004.9
20260505222518 86 232 3.0 0.0 0.00 0.00 0.00 69 1004.9
20260505222018 86 93 4.0 0.0 0.00 0.00 0.00 68 1004.9
20260505221517 86 142 3.0 0.0 0.00 0.00 0.00 68 1004.9
20260505221016 86 171 3.0 0.0 0.00 0.00 0.00 69 1005.1
20260505220515 86 194 3.0 0.0 0.00 0.00 0.00 67 1005.0
20260505220015 86 92 4.0 0.0 0.00 0.00 0.00 68 1005.1
20260505215516 87 207 4.0 0.0 0.00 0.00 0.00 67 1005.1
20260505215014 87 263 3.0 0.0 0.00 0.00 0.00 67 1005.4
20260505214519 87 153 3.0 0.0 0.00 0.00 0.00 65 1005.4
20260505214013 87 229 4.0 0.0 0.00 0.00 0.00 66 1005.5
20260505213516 86 148 5.0 0.0 0.00 0.00 0.00 69 1005.5
20260505213013 86 171 5.0 0.0 0.00 0.00 0.00 67 1005.6
20260505212514 86 182 4.0 0.0 0.00 0.00 0.00 67 1005.8
20260505212012 87 253 4.0 0.0 0.00 0.00 0.00 65 1005.6
20260505211512 87 74 5.0 0.0 0.00 0.00 0.00 67 1005.5
20260505211012 88 204 5.0 0.0 0.00 0.00 0.00 65 1005.6
20260505210514 87 195 4.0 0.0 0.00 0.00 0.00 66 1005.7
20260505210011 86 192 4.0 0.0 0.00 0.00 0.00 68 1005.7
20260505205509 86 81 5.0 0.0 0.00 0.00 0.00 67 1005.8
20260505205006 86 203 4.0 0.0 0.00 0.00 0.00 70 1005.8